Theta_e
320 320 320 318 319 319 326 332 333 334 334 329 327 337 337 329 328 327 326 327 330 331 332 331 330 330 329 329 329 329 326 327
321 321 320 318 319 320 325 331 333 336 334 331 328 329 337 334 331 331 330 328 326 327 327 330 330 331 331 329 328 329 326 325
322 321 321 319 319 320 323 325 333 334 333 333 331 329 335 336 333 333 332 328 328 326 324 325 328 327 329 329 327 329 326 324
322 323 323 322 322 324 333 330 335 333 333 333 334 333 334 336 335 333 331 329 329 328 326 326 326 326 327 327 327 329 326 324
324 324 325 325 325 325 326 336 336 335 334 334 331 331 330 329 331 332 329 330 329 328 328 327 327 326 326 326 329 328 326 325
321 322 322 323 325 325 326 327 332 332 333 334 331 329 331 328 333 331 331 331 331 329 328 327 327 326 325 325 327 327 327 325
319 320 321 323 324 325 325 326 326 329 330 329 333 332 332 333 332 331 332 331 330 329 328 327 327 326 326 326 326 327 326 325
316 317 318 318 318 321 324 325 326 327 334 328 330 332 335 334 332 333 331 330 329 328 325 326 326 326 325 325 326 325 326 325
312 311 312 314 316 318 319 322 325 327 336 333 331 335 336 334 334 333 331 330 329 327 323 325 325 324 324 325 326 326 324 325
306 307 310 312 317 320 322 323 321 326 334 336 333 335 336 335 334 333 332 329 327 323 326 326 326 324 325 325 325 325 325 325
304 305 306 309 312 315 320 324 323 325 329 336 331 333 333 335 334 332 331 329 325 324 325 325 324 324 324 324 324 325 325 325
301 300 302 304 308 311 316 324 329 329 332 333 333 332 332 334 333 331 330 328 324 324 324 325 324 323 323 324 324 325 325 325
301 299 299 301 305 309 313 322 328 330 331 331 331 329 332 334 333 330 329 327 324 325 324 324 325 323 323 324 324 324 324 323
299 299 298 298 301 306 308 317 324 328 329 328 327 329 332 331 330 328 328 324 325 324 326 325 325 325 323 322 323 323 322 321
298 298 298 299 299 300 304 307 315 321 325 327 328 328 329 328 328 327 325 324 323 323 323 325 324 324 325 324 323 323 322 322
297 297 298 299 299 300 301 304 307 312 316 323 326 327 326 326 326 325 324 323 324 323 322 322 322 324 323 324 324 323 323 323
295 296 297 298 299 299 300 302 304 306 308 311 315 322 325 325 325 323 324 324 324 323 323 322 321 321 322 322 324 322 323 322
294 294 295 296 297 298 299 301 302 304 304 304 305 311 320 323 324 323 323 324 322 323 323 322 322 321 322 322 322 322 322 322
293 292 293 294 296 299 299 300 301 301 303 301 301 302 308 315 318 319 321 321 320 321 321 320 318 320 321 322 322 321 322 321
Wind_Speed
38 38 40 34 32 33 34 37 36 34 29 29 29 26 24 23 22 21 17 20 27 30 32 32 28 30 27 26 25 23 25 29
41 38 34 34 32 32 33 36 38 37 32 33 32 33 29 25 27 23 21 19 20 25 28 32 33 33 32 29 28 26 29 30
43 35 23 33 30 24 31 34 37 37 32 30 29 32 32 28 30 28 26 25 22 21 23 28 29 30 30 32 30 31 34 35
8 10 11 10 7 4 23 31 35 34 31 28 28 32 29 29 33 36 33 28 24 25 24 24 26 26 29 30 36 39 39 41
18 15 12 8 7 2 9 28 33 34 34 33 31 34 34 38 37 34 31 28 29 26 25 25 25 27 29 30 35 39 44 44
22 16 11 8 4 4 2 6 17 32 32 32 31 32 30 31 31 30 27 27 28 30 29 28 27 28 28 30 36 38 50 45
21 18 11 9 8 9 10 11 11 7 36 36 35 34 30 28 29 27 30 30 32 33 30 28 27 27 29 30 34 46 42 45
23 22 19 18 20 20 21 21 18 12 31 38 37 35 32 30 29 27 32 33 32 30 28 27 26 25 27 25 43 33 38 38
24 23 23 23 23 24 27 33 29 14 24 38 36 34 31 30 28 28 29 29 29 27 25 22 20 20 20 25 38 35 34 42
26 27 24 23 21 22 24 27 38 29 24 38 34 31 29 33 29 28 29 27 26 24 24 22 18 15 18 16 32 35 44 40
33 29 25 22 20 21 16 15 27 24 25 36 33 31 31 32 33 33 32 27 23 22 24 22 19 14 16 16 26 31 41 42
30 29 27 25 22 21 15 14 7 13 20 30 32 30 33 31 33 33 29 25 22 24 24 23 19 16 13 16 23 34 36 35
32 32 31 32 30 27 21 13 7 13 17 20 21 21 34 30 31 31 26 22 20 22 25 24 22 21 16 23 25 24 28 31
29 35 38 37 38 34 28 17 6 5 13 14 20 26 27 27 30 26 21 18 16 18 24 26 28 27 25 25 27 29 33 31
29 32 34 37 38 39 36 24 13 3 5 14 16 24 24 23 21 17 18 20 20 18 16 23 23 24 25 32 31 32 32 31
29 32 33 34 36 37 39 34 21 13 8 10 15 18 18 22 19 19 19 19 19 16 14 17 20 24 23 25 28 31 33 32
25 28 30 31 32 32 34 37 32 17 13 11 7 14 19 21 24 24 21 21 18 19 20 21 22 24 25 22 25 24 29 26
25 24 25 27 28 27 30 30 32 29 23 21 16 10 20 24 23 26 27 28 23 24 23 24 25 21 22 21 20 22 23 23
21 20 21 22 23 24 23 25 27 30 30 28 26 21 14 16 17 18 20 26 24 27 24 23 21 24 23 23 24 23 23 24
Wind_Direction
238 239 240 240 228 239 223 219 221 217 211 212 223 223 224 227 226 228 223 213 217 223 225 227 229 235 235 229 229 225 220 211
233 236 230 226 228 239 217 215 220 215 205 205 216 226 224 214 221 229 232 228 226 223 226 227 227 230 234 233 231 227 211 205
230 229 222 219 221 238 223 221 216 216 215 217 223 222 226 219 213 222 227 234 230 224 232 229 227 228 228 227 231 219 211 200
148 123 114 115 122 139 219 209 208 215 221 219 216 219 221 222 225 215 223 232 237 237 233 233 232 227 227 224 227 221 207 200
95 86 85 90 77 94 72 219 215 213 218 218 229 239 233 232 233 227 223 224 228 231 234 237 232 227 227 226 223 224 210 198
58 55 44 31 19 359 304 85 223 230 230 233 234 243 245 239 237 235 225 226 226 231 239 240 233 227 230 233 230 226 217 208
38 28 17 347 322 292 261 266 241 282 231 236 235 241 244 233 233 232 222 226 227 234 240 238 233 239 239 235 235 220 208 206
24 11 356 334 311 286 267 267 259 308 229 233 235 236 235 238 236 229 226 222 226 232 237 231 235 240 239 239 224 220 206 206
16 360 348 337 320 302 285 264 262 266 223 236 230 228 223 227 231 233 230 228 235 239 231 225 231 244 233 231 221 223 219 218
13 1 354 342 332 321 306 279 254 247 224 230 223 220 219 213 226 233 235 235 238 234 218 221 231 214 206 211 228 222 203 208
19 12 4 355 344 329 324 308 264 248 235 220 229 217 223 217 221 231 229 238 239 220 208 219 222 214 205 212 219 221 219 210
20 16 18 10 360 348 356 32 158 209 236 220 219 222 223 214 218 226 232 238 239 219 207 213 212 203 203 200 208 213 210 212
30 27 25 25 17 5 6 30 126 181 202 221 236 232 215 213 216 218 226 233 236 215 208 209 209 206 201 206 201 199 192 191
31 31 28 29 29 20 4 26 40 190 206 233 237 218 212 215 204 208 225 221 219 212 211 212 209 211 205 203 202 206 208 210
30 33 32 33 37 33 23 10 36 70 166 205 223 218 209 191 189 199 210 216 215 221 223 210 210 210 212 218 221 221 215 217
29 30 29 32 31 38 39 24 13 37 75 175 207 198 189 178 180 180 200 214 213 212 209 209 216 215 216 213 219 227 220 225
23 26 29 29 31 33 42 43 27 16 55 64 113 187 192 186 187 184 192 201 207 205 208 211 214 218 218 215 218 220 226 235
20 23 24 29 31 35 38 46 49 36 42 54 43 99 159 181 173 186 196 198 204 210 210 212 217 218 218 214 213 211 213 222
20 18 22 23 31 36 40 43 52 56 44 43 56 52 86 138 159 161 166 164 172 178 190 194 202 206 208 213 216 215 216 219